DW5868 Weather Reports


Display with metric or nautical units.
time (UTC)temp
F
wind
direction
speed
MPH
gust
MPH
rain 1hr
in
rain 24hr
in
rain mn
in
humidity
%
barometer
mb
20260510001535 71 57 1.0 5.0 0.00 0.00 0.00 17 1008.4
20260510000035 71 80 0.0 8.0 0.00 0.00 0.00 17 1008.3
20260509234545 71 260 5.0 8.0 0.00 0.00 0.00 19 1008.3
20260509233031 70 60 1.0 7.0 0.00 0.00 0.00 19 1008.4
20260509231532 70 61 2.0 9.0 0.00 0.00 0.00 17 1008.6
20260509230029 70 167 1.0 5.0 0.00 0.00 0.00 20 1008.5
20260509224527 70 223 3.0 11.0 0.00 0.00 0.00 17 1008.9
20260509223025 70 225 1.0 10.0 0.00 0.00 0.00 17 1009.0
20260509221526 70 242 3.0 10.0 0.00 0.00 0.00 17 1009.2
20260509220023 70 161 2.0 10.0 0.00 0.00 0.00 19 1009.3
20260509214522 70 114 7.0 13.0 0.00 0.00 0.00 16 1009.6
20260509213020 69 350 2.0 5.0 0.00 0.00 0.00 17 1009.8
20260509211519 70 102 2.0 11.0 0.00 0.00 0.00 18 1010.0
20260509210020 69 138 2.0 8.0 0.00 0.00 0.00 19 1009.9
20260509204517 69 32 4.0 9.0 0.00 0.00 0.00 19 1010.0
20260509203018 68 71 2.0 11.0 0.00 0.00 0.00 19 1010.2
20260509201515 70 80 2.0 9.0 0.00 0.00 0.00 21 1010.2
20260509200014 68 119 2.0 8.0 0.00 0.00 0.00 23 1010.4
20260509194514 68 257 1.0 5.0 0.00 0.00 0.00 22 1010.5
20260509193012 67 70 3.0 6.0 0.00 0.00 0.00 25 1010.7
20260509191512 67 53 4.0 8.0 0.00 0.00 0.00 24 1010.9
20260509190020 66 129 3.0 11.0 0.00 0.00 0.00 24 1010.8
20260509184513 65 82 3.0 7.0 0.00 0.00 0.00 24 1010.9
20260509183014 67 245 2.0 7.0 0.00 0.00 0.00 25 1011.0
20260509181514 66 94 2.0 6.0 0.00 0.00 0.00 25 1011.1
20260509180005 65 134 2.0 3.0 0.00 0.00 0.00 27 1011.1
20260509174512 64 112 3.0 7.0 0.00 0.00 0.00 26 1011.1
20260509173003 63 12 1.0 10.0 0.00 0.00 0.00 28 1011.1
20260509171501 62 142 1.0 5.0 0.00 0.00 0.00 27 1011.0
20260509170002 62 44 0.0 5.0 0.00 0.00 0.00 29 1011.1
20260509164600 61 119 1.0 7.0 0.00 0.00 0.00 27 1011.1
20260509163115 61 121 0.0 5.0 0.00 0.00 0.00 33 1011.0
20260509161559 60 133 0.0 7.0 0.00 0.00 0.00 32 1011.1
20260509160058 61 109 1.0 3.0 0.00 0.00 0.00 32 1011.0
20260509154555 59 27 0.0 4.0 0.00 0.00 0.00 33 1011.1
20260509153055 59 77 0.0 3.0 0.00 0.00 0.00 32 1011.1
20260509151553 58 47 0.0 2.0 0.00 0.00 0.00 32 1011.1
20260509150104 58 87 0.0 2.0 0.00 0.00 0.00 35 1011.1
20260509144653 58 129 0.0 1.0 0.00 0.00 0.00 37 1011.1
20260509143050 57 277 0.0 0.0 0.00 0.00 0.00 41 1011.2
20260509141545 50 277 0.0 0.0 0.00 0.00 0.00 53 1011.2
20260509140040 46 277 0.0 0.0 0.00 0.00 0.00 56 1011.1
20260509134537 43 277 0.0 0.0 0.00 0.00 0.00 60 1010.8
20260509133035 0 0.0 0.0 0.00 0.00 0.00 1010.7
20260509131537 0 0.0 0.0 0.00 0.00 0.00 1010.5
20260509130026 0 0.0 0.0 0.00 0.00 0.00 1010.4
20260509124523 0 0.0 0.0 0.00 0.00 0.00 1010.4
20260509123019 0 0.0 0.0 0.00 0.00 0.00 1010.7
20260509121524 38 281 0.0 1.0 0.00 0.00 0.00 63 1010.8
20260509120016 39 282 0.0 1.0 0.00 0.00 0.00 62 1010.5
20260509114512 38 279 0.0 1.0 0.00 0.00 0.00 63 1010.4
20260509113011 39 277 0.0 1.0 0.00 0.00 0.00 62 1010.2
20260509111512 39 281 0.0 1.0 0.00 0.00 0.00 62 1010.1
20260509110012 39 280 0.0 2.0 0.00 0.00 0.00 64 1010.2
20260509104527 39 276 0.0 2.0 0.00 0.00 0.00 64 1010.1
20260509103007 39 280 0.0 2.0 0.00 0.00 0.00 63 1010.0
20260509101508 41 279 0.0 1.0 0.00 0.00 0.00 61 1010.0
20260509100015 40 280 0.0 2.0 0.00 0.00 0.00 63 1010.2
20260509094516 39 281 0.0 2.0 0.00 0.00 0.00 62 1009.9
20260509093004 40 276 0.0 2.0 0.00 0.00 0.00 60 1010.0
20260509091503 40 280 0.0 2.0 0.00 0.00 0.00 60 1010.1
20260509090003 41 273 1.0 2.0 0.00 0.00 0.00 59 1010.1
20260509084501 40 281 1.0 2.0 0.00 0.00 0.00 59 1009.9
20260509083058 41 277 1.0 3.0 0.00 0.00 0.00 58 1009.9
20260509081556 41 275 1.0 3.0 0.00 0.00 0.00 58 1009.9
20260509080059 42 280 0.0 3.0 0.00 0.00 0.00 57 1010.0
20260509074554 42 280 1.0 3.0 0.00 0.00 0.00 57 1009.9
20260509073052 42 277 1.0 3.0 0.00 0.00 0.00 58 1009.8
20260509071552 43 282 1.0 2.0 0.00 0.00 0.00 57 1009.6
20260509070041 44 275 1.0 3.0 0.00 0.00 0.00 57 1009.6
20260509064535 44 275 1.0 3.0 0.00 0.00 0.00 57 1009.6
20260509063034 44 272 1.0 3.0 0.00 0.00 0.00 60 1009.4
20260509061527 45 279 0.0 2.0 0.00 0.00 0.00 61 1009.5
20260509060024 47 278 0.0 2.0 0.00 0.00 0.00 60 1009.4
20260509054523 49 275 1.0 3.0 0.00 0.00 0.00 54 1009.2
20260509053016 51 206 1.0 6.0 0.00 0.00 0.00 51 1009.1
20260509051513 54 286 4.0 15.0 0.00 0.00 0.00 46 1008.8
20260509050007 54 260 4.0 13.0 0.00 0.00 0.00 48 1008.6
20260509044502 54 259 3.0 13.0 0.00 0.00 0.00 51 1008.6
20260509043110 53 292 4.0 12.0 0.00 0.00 0.00 51 1008.4
20260509041556 54 276 7.0 17.0 0.00 0.00 0.00 50 1008.2
20260509040054 54 271 5.0 14.0 0.00 0.00 0.00 52 1008.1
20260509034558 54 287 4.0 18.0 0.00 0.00 0.00 54 1007.9
20260509033044 55 196 4.0 10.0 0.00 0.00 0.00 54 1007.8
20260509031547 55 191 5.0 12.0 0.00 0.00 0.00 56 1007.6
20260509030035 55 249 4.0 11.0 0.00 0.00 0.00 56 1007.6
20260509024531 56 256 3.0 11.0 0.00 0.00 0.00 55 1007.5
20260509023031 57 302 4.0 12.0 0.00 0.00 0.00 54 1007.4
20260509021524 58 346 3.0 14.0 0.00 0.00 0.00 51 1007.4
20260509020020 62 284 3.0 10.0 0.00 0.00 0.00 46 1007.4
20260509014516 63 233 1.0 9.0 0.00 0.00 0.00 43 1007.5
20260509013032 63 281 3.0 9.0 0.00 0.00 0.00 40 1007.6
20260509011508 65 244 2.0 11.0 0.00 0.00 0.00 39 1007.6
20260509010004 65 201 2.0 12.0 0.00 0.00 0.00 36 1007.7
20260509004559 66 257 1.0 9.0 0.00 0.00 0.00 35 1007.8
20260509003101 65 266 3.0 10.0 0.00 0.00 0.00 35 1007.9